Tracking 30703 objects as of 14-Jun-2025
HD Live streaming from Space Station
objects crossing your sky now

THOR ABLESTAR DEB

Track THOR ABLESTAR DEB now!
10-day predictions


NORAD ID: 13502
Int'l Code: 1961-015KT
Perigee: 818.0 km
Apogee: 1,171.1 km
Inclination: 66.4 °
Period: 104.8 minutes
Semi major axis: 7365 km
RCS: 0.058 m2 (small)
Launch date: June 29, 1961
Source: United States (US)
Launch site: AIR FORCE EASTERN TEST RANGE (AFETR)

Note: This is SATELLITE DEBRIS
Your satellite tracking list
Your tracking list is empty




NASA's NSSDC Master Catalog

Two Line Element Set (TLE):
1 13502U 61015KT  25164.92142852  .00005893  00000-0  52144-2 0  9998
2 13502  66.4482 344.4337 0239660  97.0400  63.9593 13.73392142100356
Source of the keplerian elements: AFSPC